"Pseudo-MPEC" for P22i5U5

Created 2025 Dec 6 13:35:10 UT using Find_Orb

Click here for an explanation of pseudo-MPECs

 
 Astrometry: 
     P22i5U5* C2025 11 28.62110008 49 04.533-17 34 04.72   ~BSIo 22.29wXNEOCPF52
     P22i5U5  C2025 11 28.62754908 49 04.672-17 34 13.93   ~BSIo 21.65wXNEOCPF52
     P22i5U5  C2025 11 28.63403408 49 04.818-17 34 23.26   ~BSIo 22.25wXNEOCPF52
     P22i5U5  C2025 11 28.64050308 49 04.980-17 34 33.12   ~BSIo 22.00wXNEOCPF52
     P22i5U5 0C2025 12 02.52159008 50 28.020-19 08 02.80   ~C2E5 22.1 RVNEOCP291
     P22i5U5 0C2025 12 02.52832008 50 28.120-19 08 12.90   ~C2E5 21.7 RVNEOCP291
     P22i5U5 0C2025 12 02.53505008 50 28.240-19 08 22.00   ~C2E5 21.7 RVNEOCP291
     P22i5U5 DC2025 12 06.46430 08 51 24.56 -20 41 48.7    ~C6DZ 21.7 GVNEOCP695
     P22i5U5 DC2025 12 06.49018 08 51 24.80 -20 42 25.3    ~C6DZ 22.5 GVNEOCP695
     P22i5U5 DC2025 12 06.51606 08 51 24.99 -20 43 02.0    ~C6DZ 22.7 GVNEOCP695

Station data:
(291) LPL/Spacewatch II  (N31.961669 W111.599905)  US/Arizona.  Observers J.
   V. Scotti, R. S. McMillan. 1.8-m f/2.7 reflector + CCD.
(695) Kitt Peak  (N31.958395 W111.594670)  US/Arizona. Measurer S. Deen.
   2.3-m f/9 reflector + CCD.
(F52) Pan-STARRS 2, Haleakala  (N20.707382 W156.255910)  US/Hawaii.
   Observers J. Herman, T. Lowe, P. Minguez, A. Schultz, I. Smith. Measurers
   K. Chambers, T. de Boer, J. Fairlamb, H. Gao, M. Huber, C.-C. Lin, E.
   Magnier, Y. Ramanjooloo, R. Wainscoat, R. Weryk. 1.8-m Ritchey-Chrétien +
   CCD.

Orbital elements:  P22i5U5
   Perihelion 2025 Oct 9.992592 +/- 1.02 TT = 23:49:19.9 (JD 2460958.492592)
Epoch 2025 Dec  6.0 TT = JDT 2461015.5                           AutoNEOCP
M  13.610939667 +/- 0.30            (J2000 ecliptic)
n   0.238757386 +/- 0.0026          Peri.  217.712169 +/- 0.37
a   2.573345929 +/- 0.0187          Node   238.887096 +/- 0.14
e   0.19807021 +/- 0.00487          Incl.   31.792170 +/- 0.055
P   4.12807                H 18.38  G  0.15   U  8.7
q 2.063642736 +/- 0.00325    Q 3.083049122 +/- 0.0348
From 10 observations 2025 Nov. 28-Dec. 6; mean residual 0".15
Residuals in arcseconds: 
251128 F52  .02+  .03-    251202 291  .01+  .11+    251206 695  .23+  .05+    
251128 F52  .08-  .12+    251202 291  .10-  .33-    251206 695  .18-  .09-    
251128 F52  .09-  .20+    251202 291  .08+  .22+    
251128 F52  .14+  .28-    251206 695  .05-  .04+    

Ephemerides (geocentric):
Date (UTC) HH   RA             Dec           delta  r     elong  mag " sig PA
---- --------  ------------   ------------  ------ ------ -----  --- --------
2025 12 06 14  08 51 25.804   -20 44 32.67  1.5682 2.0861 107.4 22.2 .140  85
2025 12 06 15  08 51 26.237   -20 45 31.59  1.5679 2.0862 107.4 22.2 .148  85
2025 12 06 16  08 51 26.666   -20 46 30.49  1.5676 2.0862 107.4 22.2 .156  85
2025 12 06 17  08 51 27.092   -20 47 29.38  1.5674 2.0862 107.4 22.2 .164  85
2025 12 06 18  08 51 27.514   -20 48 28.26  1.5671 2.0863 107.4 22.2 .173  84
2025 12 06 19  08 51 27.934   -20 49 27.13  1.5668 2.0863 107.5 22.2 .181  84
2025 12 06 20  08 51 28.350   -20 50 25.98  1.5665 2.0863 107.5 22.2 .189  84
2025 12 06 21  08 51 28.762   -20 51 24.83  1.5663 2.0864 107.5 22.2 .198  84
2025 12 06 22  08 51 29.172   -20 52 23.66  1.5660 2.0864 107.5 22.2 .206  84
2025 12 06 23  08 51 29.578   -20 53 22.48  1.5657 2.0864 107.6 22.2 .215  84
2025 12 07 00  08 51 29.981   -20 54 21.28  1.5655 2.0864 107.6 22.2 .224  84
2025 12 07 01  08 51 30.380   -20 55 20.08  1.5652 2.0865 107.6 22.2 .233  84
2025 12 07 02  08 51 30.777   -20 56 18.86  1.5649 2.0865 107.6 22.2 .242  84
2025 12 07 03  08 51 31.170   -20 57 17.63  1.5647 2.0865 107.7 22.2 .251  84
2025 12 07 04  08 51 31.559   -20 58 16.39  1.5644 2.0866 107.7 22.2 .260  84
2025 12 07 05  08 51 31.945   -20 59 15.13  1.5641 2.0866 107.7 22.2 .269  84
2025 12 07 06  08 51 32.328   -21 00 13.86  1.5638 2.0866 107.7 22.2 .278  84
2025 12 07 07  08 51 32.708   -21 01 12.58  1.5636 2.0867 107.7 22.2 .288  84
2025 12 07 08  08 51 33.085   -21 02 11.29  1.5633 2.0867 107.8 22.2 .297  84
2025 12 07 09  08 51 33.458   -21 03 09.98  1.5630 2.0867 107.8 22.2 .307  84
2025 12 07 10  08 51 33.827   -21 04 08.67  1.5628 2.0868 107.8 22.2 .316  84
2025 12 07 11  08 51 34.194   -21 05 07.33  1.5625 2.0868 107.8 22.2 .326  84
2025 12 07 12  08 51 34.557   -21 06 05.99  1.5622 2.0868 107.9 22.2 .336  84
2025 12 07 13  08 51 34.917   -21 07 04.63  1.5620 2.0869 107.9 22.2 .345  83
2025 12 07 14  08 51 35.273   -21 08 03.26  1.5617 2.0869 107.9 22.1 .355  83
2025 12 07 15  08 51 35.626   -21 09 01.88  1.5614 2.0869 107.9 22.1 .365  83
2025 12 07 16  08 51 35.976   -21 10 00.49  1.5612 2.0870 107.9 22.1 .375  83
2025 12 07 17  08 51 36.323   -21 10 59.08  1.5609 2.0870 108.0 22.1 .386  83
2025 12 07 18  08 51 36.666   -21 11 57.66  1.5606 2.0870 108.0 22.1 .396  83
2025 12 07 19  08 51 37.006   -21 12 56.22  1.5604 2.0871 108.0 22.1 .406  83
2025 12 07 20  08 51 37.342   -21 13 54.78  1.5601 2.0871 108.0 22.1 .417  83
2025 12 07 21  08 51 37.676   -21 14 53.31  1.5598 2.0871 108.1 22.1 .427  83
2025 12 07 22  08 51 38.005   -21 15 51.84  1.5596 2.0872 108.1 22.1 .438  83
2025 12 07 23  08 51 38.332   -21 16 50.35  1.5593 2.0872 108.1 22.1 .448  83
2025 12 08 00  08 51 38.655   -21 17 48.85  1.5590 2.0872 108.1 22.1 .459  83
2025 12 08 01  08 51 38.975   -21 18 47.34  1.5588 2.0873 108.1 22.1 .470  83
2025 12 08 02  08 51 39.291   -21 19 45.81  1.5585 2.0873 108.2 22.1 .481  83
2025 12 08 03  08 51 39.605   -21 20 44.27  1.5582 2.0873 108.2 22.1 .492  83
2025 12 08 04  08 51 39.915   -21 21 42.72  1.5580 2.0874 108.2 22.1 .503  83
2025 12 08 05  08 51 40.221   -21 22 41.15  1.5577 2.0874 108.2 22.1 .514  83
2025 12 08 06  08 51 40.524   -21 23 39.57  1.5574 2.0874 108.3 22.1 .526  83
2025 12 08 07  08 51 40.824   -21 24 37.97  1.5572 2.0875 108.3 22.1 .537  83
2025 12 08 08  08 51 41.120   -21 25 36.37  1.5569 2.0875 108.3 22.1 .548  83
2025 12 08 09  08 51 41.414   -21 26 34.74  1.5567 2.0875 108.3 22.1 .560  83
2025 12 08 10  08 51 41.703   -21 27 33.11  1.5564 2.0876 108.3 22.1 .572  83
2025 12 08 11  08 51 41.990   -21 28 31.46  1.5561 2.0876 108.4 22.1 .583  83
2025 12 08 12  08 51 42.273   -21 29 29.79  1.5559 2.0876 108.4 22.1 .595  83
2025 12 08 13  08 51 42.553   -21 30 28.12  1.5556 2.0877 108.4 22.1 .607  83